Terminal Aerodrome Forecast
Issued by NWS Chicago, IL

Home | Current Version | Previous Version | Graphics & Text | Print | Product List | Glossary On
Versions: 1 2 3 4 5 6 7 8 9 10 11 12 13 14 15 16 17 18 19 20 21 22 23 24 25 26 27 28 29 30 31 32 33
000
FTUS43 KLOT 232000 AAA
TAFRFD
TAF AMD
KRFD 232000Z 2320/2418 20012G18KT P6SM SCT012 BKN020
     FM240000 20005KT P6SM SCT025 OVC120
     FM240900 36005KT 6SM BR SCT025 OVC100
     FM241500 36011G18KT 3SM -SN BR OVC015 PROB30 2416/2418 1SM -SN
      OVC008=

USA.gov is the U.S. government's official web portal to all federal, state and local government web resources and services.